STARLINK-30050

decayed
NORAD ID: 55695 Int'l Des: 2023-026 Owner: SPXS Country: US Constellation: starlink
LEOCIRCULAR
Group

About STARLINK-30050

Description loading...

Altitude History

Altitude vs Time

uPlot chart will show altitude changes over time

Two-Line Element Set

1 55695U 23026A 24208.99858972 .34572408 93141-5 31565-2 0 9994
2 55695 42.9867 48.0855 0009832 293.6155 187.3190 16.37694755 82159
Epoch: Jul 26, 2024 • Age: 10058 hours

Current Status

Position data unavailable
Launch Date Feb 27, 2023
Age 2.5 years
Decay Date Jul 27, 2024
Type internet

Technical Details

Classification Payload
Mass 730.00 kg
Dry Mass 700.00 kg
Total Mass 730.00 kg
Length 0.30 m
Diameter 4.10 m
Span 29.00 m
Shape Box + pan
Manufacturer SPXS
Bus Type Starlink V2M
Phase Status Unknown Transfer Status
Owner/State SPXS/US

Large Constellations

Loading constellations...